Home > Weather > Dornbirn > Past weeks

Flag for Austria Past Weather in Dornbirn, Vorarlberg, Austria — Yesterday and Last 2 Weeks

Now
77 °F

Warm.


Feels Like: 79 °F
Forecast: 59 / 74 °F
Wind: 1 mph from Northwest

Location: Bregenz

Current Time: Jul 1, 2016 at 9:07:49 PM

Latest Report: Jul 1, 2016 at 8:00 PM


Visibility: N/A

Pressure: 29.95 "Hg

Humidity: 52%

Dew Point: 58 °F

Location of DornbirnLocation

Past Weather in Dornbirn — Graph

°F

Dornbirn Temperature Yesterday

Maximum temperature yesterday: 73 °F (at 5:00 PM)
Minimum temperature yesterday: 63 °F (at 7:00 AM)
Average temperature yesterday: 67 °F

High & Low Weather Summary for the Past Weeks

 TemperatureHumidityPressure
High88 °F (Jun 24, 7:00 PM)98% (Jun 19, 7:00 AM)30.27 "Hg (Jun 19, 7:00 AM)
Low47 °F (Jun 17, 8:00 AM)34% (Jun 28, 7:00 PM)29.67 "Hg (Jun 16, 7:00 PM)
Average65 °F76%30.06 "Hg
* Reported Jun 16 7:00 PM — Jul 1 7:00 PM, Dornbirn, Weather by CustomWeather, © 2016

Note: Actual official high and low records may vary slightly from our data, if they occured in-between our weather recording intervals... More about our weather records

Advertising

Dornbirn Weather History for the Previous 24 Hours

Scroll right to see more
 ConditionsComfort  
Time TempWeatherWind HumidityBarometerVisibility
7:00 PM
Fri, Jul 1
78 °FWarm.1 mph51%29.95 "HgN/A
6:00 PM79 °FWarm.2 mph52%29.95 "HgN/A
5:00 PM78 °FWarm.1 mph50%29.96 "HgN/A
4:00 PM76 °FMild.2 mph52%29.98 "HgN/A
3:00 PM74 °FMild.2 mph60%30.00 "HgN/A
2:00 PM72 °FMild.2 mph69%30.01 "HgN/A
1:00 PM71 °FMild.2 mph73%30.03 "HgN/A
12:00 PM73 °FMild.1 mph68%30.03 "HgN/A
11:00 AM71 °FMild.2 mph70%30.05 "HgN/A
10:00 AM70 °FMild.1 mph66%30.06 "HgN/A
9:00 AM67 °FMild.1 mph77%30.06 "HgN/A
8:00 AM65 °FMild.No wind83%30.06 "HgN/A
7:00 AM61 °FCool.5 mph87%30.07 "HgN/A
6:00 AM60 °FCool.2 mph93%30.07 "HgN/A
5:00 AM61 °FCool.3 mph90%30.07 "HgN/A
4:00 AM62 °FCool.7 mph85%30.07 "HgN/A
3:00 AM63 °FMild.5 mph86%30.06 "HgN/A
2:00 AM62 °FCool.3 mph92%30.06 "HgN/A
1:00 AM62 °FMild.5 mph93%30.06 "HgN/A
12:00 AM64 °FMild.3 mph90%30.06 "HgN/A
11:00 PM
Thu, Jun 30
64 °FMild.2 mph94%30.06 "HgN/A
10:00 PM65 °FMild.5 mph89%30.05 "HgN/A
9:00 PM70 °FMild.3 mph76%29.99 "HgN/A
Weather by CustomWeather, © 2016

See weather overviewHow to use our weather pages